Location: Artiguedieu
(43.5000°N, 0.5454°E)
Time: 23:58:14
(UTC+00:00)

Transit 2A Rocket - Pass Details

Date: 03 August 2021
Orbit: 586 x 916 km, 66.7° (Epoch: 16 September)

Event Time Altitude Azimuth Distance (km) Brightness Sun altitude
Rises 21:03:42 0° 335° (NNW) 3,250 9.6 -16.6°
Reaches altitude 10° 21:06:18 10° 345° (NNW) 2,375 8.5 -16.9°
Maximum altitude 21:11:12 32° 48° (NE) 1,421 6.3 -17.5°
Enters shadow 21:14:15 20° 95° (E) 1,895 6.6 -17.9°
Drops below altitude 10° 21:16:24 10° 110° (ESE) 2,535 - -18.1°
Sets 21:19:14 0° 120° (ESE) 3,503 - -18.5°
